STARLINK-5389, 54835

Orbit data source: Space-Track

STARLINK-5389, 54835 is a payload satellite owned by SpaceX/Seattle (US) in LEO that was launched on Wed, 28 Dec 2022 UTC via an FALCON 9 launch vehicle from the Air Force Eastern Test Range (AFETR). Payload-class satellites include a variety of spacecraft equipped with specific instruments for various scientific and technological missions. These include communications satellites like Starlink; space stations such as the ISS; scientific satellites like the Hubble; Earth observation satellites from companies like Planet Labs, Umbra, and HawkEye 360; GPS; miniature CubeSats for education and research; and military/defense satellites.

Loading next visibility...
Identifier
54835, 2022-177R
Orbit
LEO
Country
Flag of USUS
Related business
Manufacturer
SpaceX/Seattle
Mission
Operational Commercial Communications
Bus & Motor
STARLINK, Unknown motor
Mass
305 kg wet, ~290 kg dry
Launch date (UTC)
2022-12-28 (3 years ago)
Launch vehicle
FALCON 9
Launch site
Air Force Eastern Test Range (AFETR)
Object type
Payload
Rocket body
Debris
Shape & HBR
Box + 1 Pan, 10.1 m
Radar Cross Section
13.562 m², Large (>1 m²)

Expand to show TLE details & history
Last TLE update: 3 days ago

TLE from 3 days ago
0 STARLINK-5389
1 54835U 22177R   26170.58395388  .00000322  00000-0  21232-4 0  9990
2 54835  43.0018 280.8865 0001576 273.7389  86.3282 15.27578817192505
Epoch: 2026-06-19T14:00Z
TLE epoch observation values (Epoch: 2026-06-19T14:00:53.615Z)
Latitude
-0.00004°
Longitude
162.85223°
Altitude
482.759 km
Speed
7.626 km/s
True Right ascension
18h 43m 32s
True Declination
0° 00' 00"
Sunlit
Object was in full shadow at epoch
Visualization orbit readout
Latitude
Unknown
Longitude
Unknown
Altitude
Unknown
Speed
Unknown
Apparent Right ascension
Unknown
Apparent Declination
Unknown
Sunlit
N/A
Visualization observer readout
Local Sidereal Time
21:23:39
Azimuth
Unknown
Elevation
Unknown
Doppler factor
Unknown
Orbital elements
Apogee altitude
486.079 km
Perigee altitude
483.916 km
Semi-major axis
6,863.135 km
Eccentricity
0.00016
Inclination
43.0018°
RAAN
280.8865°
Arg. of periapsis
273.7389°
True anomaly
86.34622°
Mean anomaly
86.3282°
Eccentric anomaly
86.33721°
Mean motion
3.81733 °/min
Orbital period
94.31 mins
BSTAR
0.000021232
Loading maneuver chart data...
Computing Atmospheric mass density...
Loading historical data...
Loading historical data...
Loading historical data...
Loading historical data...
Loading historical data...
Loading historical data...
Loading historical data...

Documentation

Showing up to 5 results
|